Weather History for Marietta, GA

Change the Weather History Date:

Thursday, June 13, 2013

  Actual Average Record
Temperature  
Mean Temperature 78 °F -  
Max Temperature 90 °F 82 °F 91 °F (2002)
Min Temperature 66 °F 65 °F 59 °F (2007)
Cooling Degree Days 13    
Growing Degree Days 28 (Base 50)    
Moisture  
Dew Point 70 °F    
Average Humidity 81    
Maximum Humidity 100    
Minimum Humidity 50    
Precipitation  
Precipitation 1.01 in - - ()
Sea Level Pressure  
Sea Level Pressure 29.89 in    
Wind  
Wind Speed 12 mph (West)    
Max Wind Speed 37 mph    
Max Gust Speed 52 mph    
Visibility 8 miles    
Events Fog , Rain , Thunderstorm    
Averages and records for this station are not official NWS values.
T = Trace of Precipitation, MM = Missing Value Source: NWS Daily Summary

Daily Weather History Graph

Daily Weather History Graph

Search for Another Location

Airport:

Trip Planner

Search our weather history database for the weather conditions in past years. The results will help you decide how hot, cold, wet, or windy it might be!

Date:

Astronomy

Jun. 13, 2013 Rise Set
Actual Time 6:26 AM EDT 8:50 PM EDT
Civil Twilight 5:57 AM EDT 9:19 PM EDT
Nautical Twilight 5:21 AM EDT 9:54 PM EDT
Astronomical Twilight 4:42 AM EDT 10:34 PM EDT
Moon 10:52 AM EDT (6/13) No Moon Set
Length of Visible Light 15h 21m
Length of Day
14h 23m
Waxing Crescent, 21% of the Moon is Illuminated
Jun 13
Waxing Crescent
Jun 16
First Quarter
Jun 23
Full
Jun 30
Last Quarter
Jul 8
New

Hourly Weather History & Observations

Time (EDT) Temp. Heat Index Dew Point Humidity Pressure Visibility Wind Dir Wind Speed Gust Speed Precip Events Conditions
12:58 AM 77.4 °F - 74.3 °F 90% 29.98 in 10.0 mi WSW 5.8 mph - N/A   Clear
1:58 AM 77.0 °F - 73.9 °F 90% 29.97 in 10.0 mi West 5.8 mph - N/A   Clear
2:58 AM 75.0 °F - 73.6 °F 95% 29.96 in 10.0 mi West 5.8 mph - N/A   Clear
3:58 AM 74.8 °F - 72.7 °F 93% 29.96 in 10.0 mi West 8.1 mph - N/A   Clear
4:58 AM 73.6 °F - 71.4 °F 93% 29.96 in 10.0 mi West 8.1 mph - N/A   Clear
5:58 AM 73.2 °F - 71.1 °F 93% 29.95 in 10.0 mi SSW 2.3 mph - N/A   Clear
6:58 AM 71.6 °F - 71.6 °F 100% 29.96 in 10.0 mi West 4.6 mph - N/A   Partly Cloudy
7:58 AM 76.5 °F - 72.0 °F 86% 29.95 in 10.0 mi West 11.5 mph - N/A   Clear
8:58 AM 79.5 °F - 72.7 °F 79% 29.95 in 10.0 mi West 12.7 mph - N/A   Clear
9:58 AM 82.4 °F 88.2 °F 73.4 °F 74% 29.94 in 10.0 mi West 16.1 mph 25.3 mph N/A   Scattered Clouds
10:58 AM 84.9 °F 90.4 °F 71.6 °F 64% 29.92 in 10.0 mi West 21.9 mph 33.4 mph N/A   Scattered Clouds
11:58 AM 86.4 °F 91.8 °F 71.1 °F 60% 29.91 in 10.0 mi West 19.6 mph 25.3 mph N/A   Scattered Clouds
12:58 PM 88.5 °F 94.0 °F 70.5 °F 55% 29.89 in 10.0 mi West 20.7 mph - N/A   Scattered Clouds
1:58 PM 89.2 °F 94.5 °F 70.3 °F 53% 29.87 in 10.0 mi West 17.3 mph - N/A   Scattered Clouds
2:58 PM 90.1 °F 94.9 °F 69.1 °F 50% 29.85 in 10.0 mi WSW 18.4 mph 27.6 mph N/A   Scattered Clouds
3:58 PM 90.3 °F 96.2 °F 70.3 °F 52% 29.84 in 10.0 mi West 19.6 mph - N/A   Scattered Clouds
4:58 PM 90.0 °F 96.4 °F 71.4 °F 54% 29.81 in 10.0 mi WSW 15.0 mph 25.3 mph N/A   Scattered Clouds
5:58 PM 88.3 °F 94.5 °F 71.6 °F 57% 29.78 in 10.0 mi WSW 16.1 mph 24.2 mph N/A   Mostly Cloudy
6:58 PM 86.4 °F 93.4 °F 73.0 °F 64% 29.77 in 10.0 mi WSW 13.8 mph 20.7 mph N/A   Mostly Cloudy
7:12 PM 86.0 °F 93.4 °F 73.4 °F 66% 29.80 in 10.0 mi SW 10.4 mph - N/A Thunderstorm Thunderstorm
7:48 PM 84.2 °F 89.6 °F 71.6 °F 66% 29.91 in 2.0 mi NNW 36.8 mph 51.8 mph N/A Rain , Thunderstorm Thunderstorms and Rain
7:51 PM 84.2 °F 89.6 °F 71.6 °F 66% 29.92 in 1.5 mi NNW 33.4 mph 51.8 mph N/A Rain , Thunderstorm Thunderstorms and Rain
7:56 PM 73.4 °F - 68.0 °F 83% 29.88 in 1.0 mi North 24.2 mph 51.8 mph N/A Rain , Thunderstorm Heavy Thunderstorms and Rain
7:58 PM 72.5 °F - 68.2 °F 86% 29.86 in 1.0 mi North 27.6 mph 43.7 mph 0.14 in Rain , Thunderstorm Heavy Thunderstorms and Rain
8:04 PM 68.0 °F - 66.2 °F 94% 29.89 in 0.5 mi North 20.7 mph 41.4 mph N/A Fog , Rain , Thunderstorm Heavy Thunderstorms and Rain
8:13 PM 66.2 °F - 64.4 °F 94% 29.84 in 1.5 mi NNE 10.4 mph 31.1 mph N/A Rain , Thunderstorm Thunderstorms and Rain
8:22 PM 68.0 °F - 66.2 °F 94% 29.86 in 2.0 mi WSW 9.2 mph - N/A Rain , Thunderstorm Light Thunderstorms and Rain
8:29 PM 68.0 °F - 66.2 °F 94% 29.86 in 3.0 mi WSW 13.8 mph - N/A Rain , Thunderstorm Light Thunderstorms and Rain
8:38 PM 68.0 °F - 68.0 °F 100% 29.87 in 6.0 mi WSW 12.7 mph 20.7 mph N/A Rain , Thunderstorm Light Thunderstorms and Rain
8:53 PM 69.8 °F - 68.0 °F 94% 29.87 in 6.0 mi SW 6.9 mph - N/A Rain , Thunderstorm Light Thunderstorms and Rain
8:58 PM 69.4 °F - 69.1 °F 99% 29.86 in 6.0 mi SW 6.9 mph - 0.87 in Rain , Thunderstorm Light Thunderstorms and Rain
9:10 PM 69.8 °F - 69.8 °F 100% 29.89 in 7.0 mi SSW 4.6 mph - N/A   Overcast
9:58 PM 70.0 °F - 69.1 °F 97% 29.86 in 10.0 mi West 8.1 mph - 0.00 in   Overcast
10:58 PM 69.4 °F - 69.3 °F 99% 29.86 in 10.0 mi WSW 3.5 mph - N/A   Overcast
11:58 PM 69.6 °F - 69.3 °F 99% 29.87 in 10.0 mi WSW 4.6 mph - N/A   Clear